QPF
0.00 0.01 0.04 0.05 0.07 0.05 0.03 0.03 0.04 0.05 0.06 0.04 0.04 0.05 0.06 0.05 0.04 0.03 0.03 0.02 0.03 0.05 0.06 0.06 0.04 0.05 0.04 0.04 0.03 0.02 0.02 0.03 0.04 0.03 0.02 0.03 0.02 0.01 0.01 0.00 0.00 0.00 0.00
0.01 0.01 0.04 0.05 0.05 0.04 0.03 0.03 0.03 0.03 0.04 0.04 0.03 0.03 0.03 0.03 0.03 0.03 0.04 0.04 0.04 0.05 0.06 0.07 0.06 0.06 0.04 0.03 0.02 0.02 0.02 0.02 0.03 0.05 0.03 0.02 0.02 0.01 0.01 0.01 0.01 0.01 0.01
0.01 0.02 0.06 0.06 0.04 0.04 0.04 0.03 0.03 0.03 0.04 0.04 0.03 0.03 0.03 0.03 0.03 0.02 0.03 0.03 0.03 0.04 0.07 0.09 0.10 0.07 0.05 0.03 0.03 0.03 0.03 0.03 0.03 0.03 0.01 0.01 0.01 0.01 0.02 0.01 0.01 0.01 0.01
0.01 0.02 0.05 0.06 0.04 0.03 0.04 0.05 0.03 0.03 0.04 0.05 0.05 0.04 0.04 0.04 0.03 0.02 0.03 0.03 0.02 0.03 0.06 0.12 0.17 0.12 0.07 0.04 0.03 0.03 0.02 0.02 0.02 0.01 0.01 0.00 0.02 0.02 0.03 0.02 0.02 0.02 0.01
0.01 0.02 0.03 0.04 0.03 0.03 0.03 0.04 0.04 0.04 0.04 0.05 0.05 0.05 0.06 0.05 0.04 0.03 0.03 0.03 0.03 0.04 0.05 0.05 0.09 0.12 0.07 0.03 0.02 0.02 0.02 0.02 0.01 0.00 0.00 0.00 0.02 0.02 0.03 0.02 0.02 0.02 0.02
0.02 0.02 0.02 0.03 0.02 0.02 0.03 0.04 0.05 0.05 0.04 0.03 0.04 0.05 0.06 0.05 0.04 0.03 0.03 0.04 0.06 0.07 0.09 0.07 0.06 0.10 0.08 0.04 0.02 0.02 0.02 0.01 0.01 0.01 0.00 0.00 0.02 0.03 0.02 0.02 0.02 0.02 0.02
0.02 0.02 0.02 0.03 0.02 0.02 0.02 0.03 0.04 0.05 0.05 0.04 0.03 0.03 0.06 0.06 0.04 0.03 0.04 0.05 0.08 0.09 0.09 0.08 0.06 0.06 0.06 0.05 0.03 0.03 0.02 0.02 0.01 0.01 0.01 0.01 0.03 0.04 0.04 0.02 0.02 0.02 0.03
0.02 0.02 0.02 0.03 0.03 0.02 0.02 0.02 0.03 0.04 0.04 0.05 0.04 0.03 0.04 0.05 0.06 0.04 0.03 0.04 0.04 0.04 0.04 0.04 0.04 0.04 0.03 0.03 0.03 0.02 0.02 0.01 0.01 0.01 0.01 0.01 0.03 0.04 0.05 0.03 0.02 0.02 0.02
0.02 0.01 0.02 0.03 0.02 0.02 0.02 0.02 0.03 0.03 0.03 0.04 0.05 0.05 0.05 0.04 0.05 0.05 0.03 0.03 0.03 0.03 0.02 0.02 0.02 0.02 0.01 0.01 0.02 0.01 0.01 0.01 0.00 0.00 0.01 0.02 0.02 0.02 0.04 0.04 0.04 0.03 0.02
0.02 0.01 0.02 0.03 0.03 0.02 0.02 0.02 0.02 0.03 0.04 0.04 0.05 0.05 0.04 0.05 0.05 0.05 0.04 0.03 0.03 0.02 0.01 0.01 0.01 0.01 0.01 0.01 0.01 0.01 0.00 0.00 0.00 0.00 0.01 0.02 0.02 0.02 0.03 0.04 0.05 0.04 0.04
0.02 0.02 0.02 0.02 0.02 0.02 0.02 0.02 0.02 0.03 0.04 0.04 0.05 0.05 0.05 0.06 0.06 0.06 0.05 0.04 0.03 0.02 0.01 0.01 0.01 0.00 0.00 0.00 0.00 0.00 0.00 0.01 0.01 0.01 0.01 0.02 0.02 0.03 0.04 0.04 0.03 0.03 0.03
0.02 0.02 0.02 0.03 0.02 0.02 0.01 0.01 0.01 0.02 0.04 0.04 0.04 0.04 0.04 0.04 0.04 0.05 0.05 0.04 0.04 0.02 0.02 0.01 0.01 0.00 0.00 0.00 0.00 0.01 0.01 0.01 0.01 0.02 0.02 0.03 0.03 0.04 0.05 0.05 0.04 0.03 0.04
0.02 0.02 0.02 0.02 0.02 0.02 0.02 0.01 0.01 0.01 0.03 0.05 0.04 0.04 0.04 0.04 0.04 0.04 0.05 0.04 0.04 0.02 0.01 0.01 0.01 0.01 0.00 0.00 0.00 0.00 0.01 0.01 0.02 0.02 0.02 0.03 0.04 0.03 0.04 0.04 0.03 0.03 0.04
0.01 0.01 0.01 0.02 0.02 0.02 0.02 0.02 0.02 0.01 0.02 0.04 0.04 0.05 0.06 0.05 0.04 0.04 0.05 0.04 0.03 0.02 0.01 0.01 0.01 0.01 0.00 0.00 0.00 0.01 0.00 0.00 0.01 0.01 0.01 0.01 0.03 0.05 0.06 0.05 0.04 0.04 0.04
0.01 0.01 0.01 0.01 0.01 0.01 0.02 0.02 0.03 0.02 0.02 0.03 0.03 0.04 0.05 0.06 0.07 0.06 0.06 0.05 0.04 0.03 0.02 0.01 0.01 0.01 0.00 0.00 0.00 0.00 0.01 0.01 0.00 0.00 0.01 0.01 0.01 0.03 0.06 0.09 0.10 0.09 0.06
0.02 0.01 0.01 0.01 0.01 0.01 0.01 0.01 0.02 0.02 0.02 0.02 0.03 0.03 0.03 0.04 0.05 0.06 0.06 0.06 0.05 0.05 0.03 0.02 0.02 0.01 0.01 0.01 0.00 0.00 0.01 0.01 0.01 0.00 0.01 0.01 0.02 0.02 0.03 0.05 0.07 0.07 0.07
0.02 0.03 0.02 0.02 0.01 0.01 0.01 0.01 0.01 0.01 0.01 0.02 0.03 0.03 0.03 0.04 0.04 0.05 0.04 0.04 0.03 0.04 0.04 0.04 0.04 0.03 0.02 0.01 0.01 0.01 0.01 0.01 0.02 0.02 0.01 0.01 0.01 0.02 0.02 0.02 0.03 0.05 0.05
0.01 0.02 0.02 0.02 0.02 0.01 0.01 0.01 0.01 0.01 0.01 0.01 0.02 0.02 0.02 0.02 0.03 0.04 0.04 0.04 0.03 0.03 0.03 0.04 0.04 0.05 0.05 0.03 0.02 0.01 0.01 0.00 0.01 0.02 0.02 0.02 0.02 0.02 0.02 0.03 0.04 0.05 0.05
0.02 0.02 0.02 0.02 0.02 0.02 0.02 0.01 0.01 0.01 0.01 0.01 0.01 0.01 0.01 0.01 0.02 0.02 0.04 0.05 0.05 0.04 0.04 0.03 0.03 0.04 0.05 0.05 0.04 0.03 0.02 0.01 0.00 0.00 0.01 0.01 0.02 0.02 0.03 0.03 0.03 0.03 0.03
0.02 0.02 0.02 0.03 0.03 0.03 0.02 0.02 0.02 0.01 0.01 0.01 0.01 0.01 0.01 0.01 0.01 0.02 0.02 0.03 0.04 0.05 0.05 0.04 0.04 0.03 0.04 0.05 0.05 0.04 0.03 0.01 0.01 0.00 0.00 0.00 0.01 0.01 0.01 0.01 0.01 0.02 0.02
0.02 0.02 0.02 0.02 0.02 0.02 0.02 0.03 0.02 0.01 0.01 0.00 0.00 0.01 0.01 0.01 0.01 0.01 0.01 0.01 0.02 0.04 0.05 0.05 0.05 0.05 0.05 0.05 0.05 0.05 0.04 0.02 0.01 0.01 0.01 0.00 0.00 0.00 0.00 0.00 0.00 0.01 0.01
0.02 0.02 0.01 0.01 0.02 0.02 0.02 0.02 0.02 0.01 0.01 0.00 0.00 0.00 0.01 0.01 0.01 0.01 0.01 0.01 0.01 0.02 0.03 0.04 0.04 0.04 0.05 0.05 0.04 0.04 0.04 0.03 0.02 0.01 0.01 0.01 0.01 0.01 0.00 0.00 0.00 0.00 0.00
0.03 0.02 0.01 0.01 0.01 0.01 0.02 0.02 0.02 0.03 0.02 0.01 0.00 0.00 0.00 0.00 0.01 0.01 0.01 0.01 0.01 0.02 0.02 0.02 0.02 0.03 0.03 0.04 0.04 0.05 0.04 0.04 0.03 0.02 0.02 0.02 0.02 0.01 0.01 0.00 0.00 0.01 0.01
0.04 0.04 0.02 0.01 0.01 0.01 0.01 0.02 0.02 0.02 0.03 0.02 0.01 0.00 0.00 0.00 0.00 0.00 0.01 0.01 0.01 0.02 0.02 0.02 0.02 0.02 0.03 0.04 0.04 0.05 0.04 0.04 0.04 0.03 0.02 0.01 0.01 0.01 0.01 0.01 0.01 0.01 0.01
0.04 0.05 0.05 0.03 0.02 0.02 0.02 0.02 0.03 0.03 0.02 0.02 0.02 0.02 0.01 0.01 0.00 0.00 0.00 0.01 0.01 0.01 0.02 0.02 0.02 0.02 0.03 0.03 0.04 0.04 0.04 0.03 0.03 0.03 0.03 0.02 0.01 0.01 0.01 0.01 0.01 0.01 0.01
0.03 0.05 0.07 0.08 0.06 0.04 0.02 0.02 0.02 0.03 0.02 0.02 0.02 0.03 0.02 0.02 0.01 0.01 0.00 0.01 0.01 0.01 0.02 0.02 0.02 0.02 0.02 0.03 0.03 0.03 0.03 0.03 0.03 0.03 0.02 0.02 0.02 0.01 0.00 0.00 0.01 0.01 0.01
MSLP
1020.98 1020.90 1020.90 1021.00 1021.21 1021.48 1021.77 1022.03 1022.21 1022.29 1022.28 1022.18 1022.05 1021.92 1021.81 1021.75 1021.72 1021.71 1021.68 1021.62 1021.52 1021.39 1021.23 1021.08 1020.95 1020.85 1020.77 1020.70 1020.61 1020.46 1020.25 1019.98 1019.66 1019.32 1018.99 1018.70 1018.46 1018.28 1018.14 1018.01 1017.87 1017.69 1017.47
1020.96 1020.95 1021.01 1021.17 1021.41 1021.71 1022.02 1022.30 1022.50 1022.60 1022.61 1022.54 1022.44 1022.35 1022.29 1022.26 1022.26 1022.28 1022.26 1022.21 1022.12 1021.99 1021.85 1021.71 1021.60 1021.53 1021.47 1021.41 1021.31 1021.15 1020.92 1020.61 1020.25 1019.88 1019.53 1019.24 1019.00 1018.83 1018.69 1018.58 1018.44 1018.27 1018.05
1021.05 1021.10 1021.20 1021.39 1021.65 1021.96 1022.28 1022.56 1022.78 1022.90 1022.94 1022.92 1022.87 1022.83 1022.80 1022.81 1022.83 1022.85 1022.83 1022.77 1022.67 1022.54 1022.40 1022.28 1022.19 1022.13 1022.09 1022.04 1021.94 1021.77 1021.52 1021.19 1020.81 1020.42 1020.07 1019.77 1019.53 1019.37 1019.24 1019.13 1018.99 1018.82 1018.60
1021.27 1021.36 1021.49 1021.68 1021.94 1022.25 1022.56 1022.84 1023.07 1023.22 1023.30 1023.33 1023.33 1023.33 1023.34 1023.37 1023.40 1023.40 1023.37 1023.29 1023.17 1023.02 1022.89 1022.77 1022.70 1022.67 1022.64 1022.60 1022.50 1022.33 1022.07 1021.73 1021.35 1020.96 1020.60 1020.29 1020.06 1019.89 1019.76 1019.64 1019.50 1019.32 1019.09
1021.61 1021.71 1021.85 1022.04 1022.29 1022.57 1022.87 1023.15 1023.39 1023.56 1023.68 1023.75 1023.80 1023.84 1023.88 1023.92 1023.94 1023.93 1023.87 1023.77 1023.63 1023.48 1023.34 1023.24 1023.18 1023.16 1023.15 1023.12 1023.03 1022.85 1022.59 1022.25 1021.87 1021.48 1021.12 1020.82 1020.58 1020.39 1020.25 1020.11 1019.95 1019.76 1019.53
1022.01 1022.12 1022.26 1022.44 1022.66 1022.93 1023.21 1023.49 1023.73 1023.92 1024.06 1024.17 1024.25 1024.33 1024.39 1024.44 1024.46 1024.43 1024.36 1024.24 1024.09 1023.93 1023.80 1023.70 1023.66 1023.65 1023.65 1023.61 1023.53 1023.35 1023.09 1022.76 1022.38 1022.00 1021.64 1021.33 1021.07 1020.86 1020.68 1020.51 1020.33 1020.13 1019.90
1022.44 1022.54 1022.67 1022.83 1023.05 1023.30 1023.57 1023.84 1024.08 1024.28 1024.44 1024.57 1024.68 1024.77 1024.85 1024.91 1024.93 1024.91 1024.83 1024.71 1024.56 1024.41 1024.29 1024.20 1024.16 1024.15 1024.15 1024.11 1024.01 1023.84 1023.58 1023.25 1022.88 1022.50 1022.13 1021.81 1021.53 1021.29 1021.07 1020.86 1020.65 1020.43 1020.21
1022.83 1022.93 1023.04 1023.20 1023.41 1023.66 1023.93 1024.19 1024.42 1024.63 1024.80 1024.93 1025.05 1025.16 1025.25 1025.32 1025.36 1025.35 1025.28 1025.18 1025.05 1024.92 1024.81 1024.74 1024.69 1024.67 1024.65 1024.60 1024.48 1024.29 1024.03 1023.70 1023.34 1022.96 1022.60 1022.26 1021.95 1021.67 1021.41 1021.16 1020.92 1020.69 1020.46
1023.15 1023.23 1023.34 1023.51 1023.73 1023.99 1024.26 1024.52 1024.76 1024.96 1025.12 1025.25 1025.38 1025.49 1025.59 1025.67 1025.73 1025.74 1025.71 1025.64 1025.54 1025.44 1025.35 1025.27 1025.22 1025.18 1025.13 1025.04 1024.90 1024.69 1024.42 1024.10 1023.75 1023.38 1023.02 1022.67 1022.34 1022.02 1021.72 1021.43 1021.15 1020.90 1020.68
1023.38 1023.45 1023.57 1023.75 1023.99 1024.27 1024.55 1024.82 1025.05 1025.25 1025.40 1025.53 1025.64 1025.75 1025.86 1025.96 1026.04 1026.08 1026.09 1026.05 1025.99 1025.92 1025.84 1025.77 1025.70 1025.63 1025.54 1025.41 1025.24 1025.01 1024.74 1024.43 1024.09 1023.74 1023.40 1023.05 1022.71 1022.36 1022.02 1021.69 1021.38 1021.11 1020.88
1023.52 1023.58 1023.72 1023.92 1024.19 1024.49 1024.80 1025.07 1025.31 1025.49 1025.63 1025.75 1025.85 1025.95 1026.06 1026.17 1026.27 1026.35 1026.39 1026.39 1026.36 1026.31 1026.24 1026.16 1026.08 1025.97 1025.84 1025.68 1025.48 1025.24 1024.97 1024.68 1024.37 1024.06 1023.74 1023.41 1023.08 1022.72 1022.36 1021.99 1021.64 1021.34 1021.08
1023.56 1023.64 1023.79 1024.02 1024.32 1024.65 1024.97 1025.26 1025.50 1025.68 1025.81 1025.91 1026.00 1026.10 1026.21 1026.32 1026.43 1026.53 1026.60 1026.63 1026.62 1026.59 1026.52 1026.43 1026.32 1026.18 1026.02 1025.83 1025.61 1025.36 1025.11 1024.85 1024.59 1024.33 1024.06 1023.77 1023.46 1023.11 1022.73 1022.34 1021.96 1021.62 1021.33
1023.53 1023.62 1023.80 1024.06 1024.39 1024.73 1025.07 1025.37 1025.61 1025.78 1025.91 1026.00 1026.09 1026.18 1026.29 1026.41 1026.53 1026.64 1026.72 1026.76 1026.77 1026.74 1026.67 1026.57 1026.44 1026.27 1026.08 1025.87 1025.64 1025.40 1025.17 1024.95 1024.75 1024.55 1024.35 1024.12 1023.85 1023.52 1023.15 1022.75 1022.34 1021.96 1021.63
1023.42 1023.54 1023.74 1024.03 1024.37 1024.73 1025.08 1025.38 1025.62 1025.80 1025.93 1026.03 1026.12 1026.21 1026.33 1026.45 1026.57 1026.68 1026.76 1026.81 1026.82 1026.79 1026.71 1026.60 1026.45 1026.27 1026.06 1025.83 1025.60 1025.38 1025.18 1025.01 1024.87 1024.74 1024.61 1024.44 1024.23 1023.95 1023.60 1023.20 1022.78 1022.36 1021.98
1023.24 1023.39 1023.62 1023.92 1024.28 1024.65 1024.99 1025.29 1025.54 1025.72 1025.86 1025.97 1026.08 1026.19 1026.31 1026.44 1026.57 1026.68 1026.76 1026.80 1026.81 1026.77 1026.69 1026.56 1026.40 1026.21 1025.99 1025.76 1025.53 1025.33 1025.16 1025.03 1024.94 1024.88 1024.81 1024.72 1024.57 1024.34 1024.03 1023.66 1023.23 1022.80 1022.38
1022.99 1023.17 1023.42 1023.74 1024.10 1024.46 1024.80 1025.10 1025.35 1025.54 1025.70 1025.84 1025.97 1026.10 1026.25 1026.39 1026.52 1026.64 1026.72 1026.76 1026.76 1026.72 1026.64 1026.51 1026.35 1026.15 1025.93 1025.70 1025.47 1025.28 1025.12 1025.02 1024.97 1024.95 1024.94 1024.91 1024.82 1024.65 1024.40 1024.05 1023.65 1023.21 1022.77
1022.67 1022.89 1023.16 1023.49 1023.84 1024.20 1024.53 1024.82 1025.07 1025.28 1025.45 1025.62 1025.78 1025.95 1026.12 1026.29 1026.44 1026.56 1026.65 1026.70 1026.70 1026.67 1026.59 1026.47 1026.31 1026.11 1025.89 1025.66 1025.43 1025.23 1025.08 1024.98 1024.94 1024.94 1024.97 1024.98 1024.94 1024.83 1024.63 1024.34 1023.97 1023.54 1023.10
1022.29 1022.55 1022.85 1023.18 1023.53 1023.87 1024.19 1024.47 1024.72 1024.93 1025.13 1025.33 1025.52 1025.72 1025.93 1026.12 1026.29 1026.44 1026.54 1026.61 1026.63 1026.61 1026.54 1026.44 1026.29 1026.10 1025.89 1025.65 1025.42 1025.21 1025.03 1024.91 1024.86 1024.85 1024.88 1024.91 1024.91 1024.85 1024.70 1024.46 1024.13 1023.75 1023.32
1021.89 1022.17 1022.49 1022.83 1023.17 1023.50 1023.80 1024.07 1024.31 1024.53 1024.74 1024.95 1025.17 1025.40 1025.63 1025.85 1026.06 1026.23 1026.36 1026.46 1026.51 1026.51 1026.47 1026.39 1026.27 1026.10 1025.89 1025.66 1025.41 1025.18 1024.97 1024.82 1024.73 1024.69 1024.70 1024.72 1024.73 1024.69 1024.58 1024.39 1024.13 1023.78 1023.39
1021.48 1021.79 1022.12 1022.46 1022.79 1023.10 1023.38 1023.64 1023.86 1024.07 1024.28 1024.50 1024.73 1024.97 1025.22 1025.47 1025.70 1025.91 1026.08 1026.21 1026.30 1026.35 1026.35 1026.30 1026.21 1026.06 1025.87 1025.64 1025.39 1025.14 1024.91 1024.71 1024.57 1024.48 1024.44 1024.43 1024.42 1024.39 1024.31 1024.16 1023.94 1023.65 1023.30
1021.10 1021.41 1021.74 1022.07 1022.39 1022.68 1022.94 1023.17 1023.38 1023.57 1023.76 1023.96 1024.18 1024.42 1024.68 1024.95 1025.21 1025.45 1025.66 1025.84 1025.98 1026.07 1026.12 1026.12 1026.06 1025.95 1025.79 1025.58 1025.34 1025.09 1024.83 1024.60 1024.41 1024.26 1024.16 1024.10 1024.05 1024.00 1023.92 1023.79 1023.61 1023.36 1023.06
1020.75 1021.05 1021.36 1021.68 1021.97 1022.24 1022.48 1022.68 1022.85 1023.01 1023.16 1023.33 1023.53 1023.75 1024.01 1024.28 1024.57 1024.84 1025.10 1025.33 1025.52 1025.67 1025.77 1025.82 1025.81 1025.75 1025.63 1025.46 1025.25 1025.01 1024.75 1024.50 1024.26 1024.06 1023.90 1023.77 1023.67 1023.57 1023.47 1023.34 1023.18 1022.97 1022.70
1020.45 1020.72 1020.99 1021.27 1021.54 1021.77 1021.98 1022.14 1022.28 1022.39 1022.50 1022.62 1022.78 1022.97 1023.21 1023.49 1023.79 1024.10 1024.40 1024.68 1024.93 1025.13 1025.29 1025.40 1025.45 1025.44 1025.38 1025.27 1025.11 1024.90 1024.67 1024.42 1024.17 1023.93 1023.71 1023.51 1023.34 1023.19 1023.04 1022.89 1022.72 1022.52 1022.28
1020.20 1020.40 1020.62 1020.84 1021.06 1021.26 1021.43 1021.56 1021.65 1021.71 1021.77 1021.84 1021.94 1022.10 1022.31 1022.58 1022.90 1023.24 1023.58 1023.92 1024.22 1024.48 1024.70 1024.86 1024.97 1025.03 1025.04 1025.00 1024.91 1024.77 1024.59 1024.37 1024.13 1023.87 1023.60 1023.34 1023.10 1022.88 1022.67 1022.47 1022.28 1022.07 1021.85
1019.98 1020.09 1020.24 1020.39 1020.56 1020.71 1020.83 1020.91 1020.96 1020.97 1020.98 1021.00 1021.05 1021.17 1021.36 1021.61 1021.94 1022.30 1022.69 1023.07 1023.43 1023.74 1024.01 1024.24 1024.41 1024.54 1024.63 1024.67 1024.67 1024.62 1024.51 1024.34 1024.13 1023.87 1023.57 1023.26 1022.95 1022.65 1022.37 1022.12 1021.88 1021.65 1021.42
1019.79 1019.81 1019.85 1019.93 1020.02 1020.12 1020.19 1020.23 1020.23 1020.20 1020.16 1020.13 1020.13 1020.21 1020.37 1020.61 1020.94 1021.33 1021.75 1022.17 1022.58 1022.95 1023.27 1023.55 1023.79 1023.99 1024.15 1024.29 1024.38 1024.42 1024.40 1024.30 1024.14 1023.90 1023.59 1023.25 1022.88 1022.51 1022.16 1021.83 1021.54 1021.27 1021.01
Thickness
5709 5709 5707 5708 5709 5709 5709 5710 5710 5711 5711 5711 5712 5712 5712 5712 5712 5712 5713 5713 5713 5713 5714 5714 5714 5714 5714 5714 5714 5713 5713 5713 5713 5713 5713 5713 5713 5712 5712 5712 5713 5712 5711
5705 5705 5703 5704 5705 5705 5706 5706 5706 5707 5707 5707 5708 5708 5708 5708 5708 5708 5708 5708 5709 5709 5709 5710 5709 5709 5709 5709 5708 5708 5708 5707 5707 5707 5708 5708 5707 5707 5707 5707 5707 5707 5706
5701 5701 5699 5700 5701 5701 5701 5702 5702 5702 5703 5703 5703 5703 5703 5703 5704 5704 5704 5704 5704 5704 5705 5705 5704 5704 5704 5703 5703 5702 5702 5702 5702 5703 5704 5705 5703 5702 5701 5701 5701 5701 5701
5696 5696 5695 5695 5696 5696 5697 5697 5698 5698 5698 5698 5698 5698 5698 5699 5699 5699 5699 5699 5699 5699 5699 5699 5699 5699 5698 5697 5697 5697 5696 5696 5696 5698 5700 5700 5699 5697 5696 5696 5696 5696 5695
5690 5690 5689 5690 5691 5691 5692 5692 5692 5692 5692 5693 5693 5693 5693 5693 5693 5694 5694 5694 5694 5694 5694 5693 5693 5693 5692 5692 5691 5691 5690 5690 5691 5693 5694 5693 5693 5691 5691 5690 5690 5690 5690
5684 5684 5683 5684 5685 5685 5686 5686 5687 5687 5687 5687 5687 5687 5688 5688 5688 5688 5688 5689 5689 5688 5688 5688 5688 5687 5686 5686 5685 5685 5684 5685 5686 5687 5687 5687 5687 5685 5685 5684 5684 5684 5684
5677 5677 5677 5677 5678 5679 5679 5680 5680 5681 5681 5681 5681 5682 5682 5682 5682 5682 5682 5682 5683 5682 5682 5682 5682 5681 5680 5680 5679 5679 5678 5679 5681 5681 5680 5680 5679 5679 5679 5678 5678 5678 5678
5670 5670 5669 5669 5670 5671 5672 5673 5674 5674 5675 5675 5675 5676 5676 5676 5676 5676 5676 5676 5676 5676 5676 5675 5675 5674 5674 5674 5673 5673 5672 5672 5674 5674 5674 5673 5671 5672 5672 5672 5672 5671 5671
5663 5663 5663 5663 5663 5664 5665 5666 5666 5667 5668 5668 5669 5670 5669 5669 5669 5669 5669 5669 5670 5670 5669 5669 5668 5668 5667 5667 5667 5666 5666 5666 5669 5668 5667 5666 5665 5665 5666 5665 5665 5664 5664
5655 5656 5656 5656 5657 5657 5658 5658 5659 5660 5660 5661 5662 5662 5663 5662 5662 5662 5662 5662 5662 5662 5662 5661 5661 5660 5660 5660 5659 5659 5660 5660 5662 5661 5661 5659 5658 5658 5658 5658 5657 5657 5657
5647 5648 5648 5649 5650 5650 5651 5651 5651 5652 5653 5654 5655 5655 5656 5656 5655 5655 5654 5654 5654 5655 5654 5654 5653 5652 5652 5652 5652 5652 5653 5654 5655 5654 5653 5651 5651 5651 5651 5651 5650 5650 5649
5640 5640 5641 5642 5642 5643 5644 5644 5645 5645 5646 5647 5647 5647 5648 5648 5648 5647 5646 5646 5646 5646 5646 5646 5645 5645 5645 5645 5645 5645 5646 5646 5646 5645 5644 5643 5643 5643 5644 5643 5643 5642 5641
5633 5633 5633 5634 5634 5635 5635 5636 5637 5638 5638 5639 5639 5639 5640 5640 5640 5639 5640 5639 5638 5639 5639 5638 5638 5637 5637 5637 5637 5637 5638 5638 5637 5637 5635 5634 5635 5635 5635 5635 5634 5634 5633
5626 5626 5626 5626 5627 5627 5627 5628 5628 5629 5630 5631 5630 5631 5632 5632 5632 5631 5631 5631 5631 5630 5630 5630 5629 5629 5629 5629 5629 5629 5629 5629 5628 5627 5626 5625 5625 5626 5626 5626 5626 5625 5625
5619 5619 5619 5619 5619 5619 5619 5620 5620 5621 5622 5621 5622 5622 5622 5623 5623 5623 5622 5622 5622 5621 5621 5621 5621 5621 5621 5620 5620 5619 5619 5619 5619 5618 5617 5615 5615 5616 5617 5617 5616 5616 5615
5611 5612 5611 5612 5612 5611 5612 5612 5612 5612 5612 5613 5613 5613 5613 5613 5613 5614 5613 5612 5612 5612 5611 5611 5612 5611 5611 5610 5610 5610 5610 5609 5609 5609 5608 5606 5605 5606 5606 5606 5606 5605 5606
5604 5604 5604 5604 5603 5603 5604 5604 5604 5604 5604 5604 5603 5603 5603 5604 5604 5603 5604 5604 5603 5603 5602 5602 5602 5602 5601 5601 5601 5600 5600 5600 5599 5599 5598 5597 5597 5595 5595 5595 5595 5595 5595
5596 5596 5596 5596 5596 5595 5595 5595 5595 5596 5595 5594 5594 5594 5593 5594 5594 5594 5594 5594 5593 5593 5592 5592 5592 5592 5592 5592 5591 5590 5589 5589 5589 5588 5587 5587 5586 5585 5584 5584 5583 5584 5584
5588 5588 5588 5588 5587 5587 5586 5586 5586 5586 5586 5585 5585 5585 5584 5584 5584 5584 5584 5583 5583 5583 5582 5582 5582 5582 5582 5581 5581 5580 5579 5578 5578 5577 5577 5576 5574 5574 5574 5573 5572 5572 5573
5580 5580 5580 5580 5579 5579 5578 5577 5577 5576 5576 5576 5576 5575 5575 5575 5575 5574 5574 5573 5573 5572 5572 5571 5571 5570 5570 5570 5570 5569 5569 5568 5567 5567 5566 5565 5563 5563 5563 5562 5562 5562 5561
5572 5572 5572 5572 5571 5570 5570 5569 5569 5569 5568 5567 5567 5566 5565 5565 5565 5565 5564 5563 5562 5562 5561 5561 5560 5559 5559 5558 5559 5560 5559 5557 5557 5556 5555 5554 5553 5552 5552 5551 5551 5551 5551
5563 5563 5563 5563 5562 5562 5562 5561 5560 5559 5559 5558 5557 5556 5556 5556 5555 5555 5554 5553 5552 5551 5551 5550 5549 5548 5547 5547 5549 5551 5553 5552 5548 5546 5545 5544 5543 5542 5541 5540 5540 5540 5540
5554 5554 5554 5554 5554 5553 5552 5551 5550 5550 5549 5548 5548 5547 5546 5546 5545 5545 5544 5543 5542 5541 5540 5539 5538 5537 5537 5536 5536 5539 5542 5546 5541 5539 5536 5534 5533 5532 5531 5530 5529 5529 5529
5545 5544 5544 5544 5544 5544 5543 5542 5543 5544 5543 5542 5541 5539 5537 5536 5535 5535 5534 5533 5532 5531 5530 5529 5527 5526 5526 5526 5525 5525 5526 5527 5528 5531 5528 5526 5523 5521 5520 5519 5518 5518 5517
5535 5534 5534 5534 5534 5533 5533 5533 5533 5534 5534 5532 5531 5529 5528 5527 5526 5525 5524 5523 5522 5521 5520 5518 5517 5516 5516 5516 5515 5515 5515 5514 5515 5516 5519 5516 5514 5511 5509 5508 5508 5507 5507
5526 5525 5525 5525 5524 5523 5522 5522 5523 5523 5523 5523 5522 5521 5519 5518 5517 5515 5514 5513 5512 5511 5510 5509 5507 5506 5506 5505 5505 5504 5504 5505 5505 5505 5506 5506 5505 5502 5500 5498 5498 5496 5496